Probability
14 15 14 13 17 22 27 28 25 22 19 14 11 12 11 10 11 11 11 10 9 9 9 7 7 6 7 10 11 11 10 8 7 7 6 6 5 6 9 10 11 11 12
17 17 15 13 16 20 24 27 26 23 20 17 14 13 13 13 13 12 11 11 11 11 8 7 6 6 8 11 12 11 10 9 9 8 7 5 5 5 7 10 12 12 14
19 19 16 13 14 18 22 25 28 26 23 20 17 14 14 14 13 11 10 11 13 13 10 9 9 8 9 11 12 11 11 11 10 10 9 8 8 6 7 10 11 13 14
20 19 17 14 15 18 22 28 32 31 26 22 18 15 14 13 12 10 11 13 15 16 14 14 15 15 13 12 12 12 12 13 13 13 14 14 12 10 9 9 9 11 12
20 21 20 17 17 19 25 32 36 34 30 24 19 17 16 15 14 13 14 18 20 18 17 18 21 22 20 17 17 17 17 16 15 15 15 16 14 11 9 8 8 8 9
22 23 24 22 20 22 27 34 38 37 33 26 21 19 19 19 19 19 21 24 25 22 19 20 24 27 27 25 24 24 22 19 17 15 14 13 11 9 9 8 6 6 6
20 22 25 25 24 25 30 37 41 41 37 30 25 23 23 23 23 24 25 26 26 25 23 23 27 30 31 30 29 27 25 21 19 15 12 11 9 8 9 9 7 5 4
14 17 20 23 24 27 32 39 44 44 40 34 31 31 30 27 26 26 25 24 25 25 27 28 29 30 31 31 30 28 25 24 22 16 12 10 10 10 10 10 8 6 5
9 12 15 19 22 25 31 38 43 45 43 39 38 38 37 34 31 29 25 25 25 27 30 31 31 30 29 28 28 27 24 23 22 17 13 12 12 11 10 10 9 8 7
6 9 13 17 21 25 29 35 40 44 44 42 41 40 41 40 37 33 30 31 33 33 34 34 32 31 28 26 26 25 24 21 20 19 15 13 12 10 9 9 9 8 6
6 8 12 16 21 24 27 32 37 41 42 42 41 41 44 45 42 38 37 39 40 40 39 38 36 32 28 26 25 25 24 24 23 22 20 16 11 8 9 9 9 7 6
12 12 14 18 22 25 27 29 34 38 40 40 42 44 46 46 45 42 42 42 43 43 42 41 38 34 30 27 26 24 25 25 24 24 23 19 14 10 10 10 9 8 7
22 19 20 25 28 29 30 30 32 35 38 38 40 44 46 46 44 43 43 43 44 44 44 43 39 35 32 29 26 23 22 22 21 21 21 20 17 14 12 11 10 9 8
27 26 28 33 36 36 36 34 32 33 36 37 38 43 46 44 42 43 43 43 42 41 41 41 37 34 30 26 24 23 21 19 17 17 19 19 17 13 11 10 10 9 9
28 31 32 35 39 41 42 40 36 35 36 38 39 42 42 40 40 42 42 41 39 36 37 37 33 29 23 19 19 21 20 18 16 16 17 15 12 9 7 7 7 7 7
32 35 38 40 42 44 46 45 42 39 38 40 40 39 39 39 38 38 37 37 36 34 33 33 29 25 19 15 14 16 19 20 19 19 18 14 9 6 5 4 3 3 4
37 39 45 47 47 47 49 49 47 44 42 41 39 37 37 38 37 35 33 33 33 32 31 29 27 25 20 14 10 10 16 20 21 22 21 18 14 10 7 5 3 3 3
41 44 48 50 48 46 47 49 46 44 42 40 38 37 36 35 35 35 34 34 34 32 29 27 26 24 20 13 7 6 11 19 23 25 25 24 21 16 12 9 7 6 5
42 44 46 45 45 43 44 44 42 38 36 36 36 35 34 33 33 35 35 35 35 33 29 25 23 22 19 13 6 5 10 18 24 27 27 25 22 17 13 12 12 9 7
42 42 40 38 40 43 43 41 38 35 34 33 33 32 32 32 33 33 33 32 31 30 26 22 21 22 20 13 5 4 10 17 23 27 26 22 17 11 9 12 13 12 9
42 41 38 35 38 43 43 40 38 36 36 33 31 30 30 29 29 29 28 27 26 25 22 20 21 23 21 13 4 3 8 13 18 23 22 17 9 4 4 8 12 12 10
42 41 40 38 39 41 40 37 36 35 36 33 30 29 28 26 24 25 25 25 24 22 20 20 22 23 21 14 5 2 3 7 13 18 17 11 4 1 1 4 7 8 8
42 41 40 39 38 36 32 29 30 32 33 32 30 29 27 24 22 22 23 23 22 20 19 19 20 21 19 16 9 3 1 3 8 12 11 5 1 0 0 1 3 5 6
41 40 38 36 33 28 23 21 25 28 31 31 31 29 26 24 24 23 22 21 20 19 18 18 18 18 17 14 11 7 4 3 5 7 6 3 1 1 2 3 3 5 6
38 37 36 33 28 23 18 17 21 25 28 29 29 28 25 24 24 22 19 17 16 16 17 16 16 15 14 11 9 8 7 6 6 6 7 5 4 4 5 7 8 9 9
36 35 33 30 25 20 17 16 19 24 27 26 26 25 24 24 23 19 15 13 14 14 15 15 15 15 12 9 7 7 7 6 6 7 8 8 6 6 7 10 11 12 12
Wind_Speed
11 11 10 9 9 9 7 6 5 4 3 2 2 2 2 1 2 2 3 2 2 3 3 2 3 3 2 3 4 3 3 3 2 2 2 1 2 2 2 3 3 3 4
11 10 10 9 10 9 7 6 6 5 3 2 2 2 2 2 2 2 2 3 2 2 3 3 2 3 2 3 3 3 2 2 2 2 2 1 1 1 2 2 3 3 3
12 11 10 9 10 9 8 7 6 5 4 3 2 2 2 1 2 2 2 2 2 2 2 3 3 3 3 3 3 3 3 2 2 2 2 1 2 1 0 1 1 2 2
13 12 11 10 10 10 9 7 6 5 5 4 3 3 3 2 2 2 2 2 3 3 4 3 2 2 2 2 3 3 2 3 2 2 2 2 2 2 1 1 1 1 1
12 13 12 10 10 10 10 8 7 5 5 4 4 3 2 2 2 2 3 3 3 3 4 4 3 2 2 2 2 1 2 2 2 2 1 1 1 2 2 2 1 1 1
11 11 11 10 9 10 10 10 8 6 5 5 4 3 3 2 2 3 3 3 3 3 4 4 3 3 3 3 3 2 3 2 2 2 1 1 1 1 2 2 2 2 2
10 11 11 11 9 9 9 9 9 8 6 6 5 4 4 3 3 3 3 2 2 3 3 3 3 3 3 3 3 3 3 2 2 2 2 2 1 1 1 2 2 1 1
10 10 11 11 10 9 9 9 10 8 7 6 5 4 4 3 3 3 2 2 2 3 3 4 4 3 3 3 3 3 3 3 3 3 2 2 1 1 1 1 2 1 2
9 9 10 10 10 9 9 10 9 8 7 6 5 5 5 4 3 3 2 1 1 2 3 3 3 3 3 3 3 2 2 2 2 2 2 2 1 1 1 1 2 2 2
8 9 9 9 9 9 8 9 10 9 8 7 6 6 5 4 3 2 2 1 1 1 2 2 2 2 2 3 2 2 2 2 2 2 2 1 1 1 1 1 2 2 2
7 7 7 8 8 8 8 8 8 8 7 7 6 4 5 5 4 3 2 2 1 2 1 2 2 2 2 2 2 2 2 2 2 2 2 1 1 1 1 1 1 1 1
6 5 6 7 7 7 7 8 8 8 7 6 5 5 4 4 4 3 2 2 2 2 2 2 2 2 2 2 2 2 1 1 2 1 1 1 1 0 1 1 2 1 1
5 5 4 4 5 5 5 6 7 7 6 6 6 4 4 4 4 3 3 2 2 2 2 2 2 1 1 1 1 1 1 1 1 1 1 1 0 1 1 2 2 1 1
5 4 4 3 3 3 3 4 5 5 6 6 5 4 4 4 3 3 3 2 2 2 3 3 2 2 2 1 1 1 1 1 1 1 1 1 1 1 2 2 1 1 2
4 4 4 3 2 3 4 4 4 4 4 5 5 5 4 4 4 3 3 2 2 3 2 2 2 2 2 1 1 1 2 1 1 1 1 1 1 2 1 1 1 1 1
4 4 3 3 2 3 3 4 3 4 4 4 5 4 4 4 4 4 4 3 2 2 2 2 1 1 1 1 2 0 1 1 1 1 1 1 2 3 2 2 2 0 1
3 3 3 2 2 2 3 4 3 3 4 4 4 5 4 4 4 4 4 3 3 2 2 1 1 1 1 1 2 1 1 1 1 1 1 2 1 3 2 1 1 0 2
3 2 2 2 2 2 2 3 4 3 3 3 4 4 4 4 4 4 4 3 3 3 2 2 2 1 2 2 2 1 2 2 2 2 2 1 1 2 2 1 1 2 2
3 2 2 2 2 2 1 3 4 4 4 3 4 4 4 4 4 4 3 3 3 3 3 3 2 2 1 2 2 2 2 2 3 3 2 2 2 2 3 2 2 2 2
4 3 3 3 2 2 2 3 4 4 3 3 3 3 4 4 4 4 3 3 2 3 3 2 2 2 2 3 3 3 2 2 3 2 2 3 3 3 3 2 2 2 2
5 4 4 3 3 3 2 2 3 3 2 3 3 3 4 4 4 4 3 3 3 3 3 2 2 2 3 4 5 4 2 3 3 3 2 2 4 5 5 4 3 3 3
4 4 4 4 4 3 2 3 2 1 2 2 3 3 4 4 4 3 3 3 3 3 3 2 3 3 3 4 5 6 6 4 3 3 2 1 5 6 6 5 4 4 3
4 4 5 5 5 4 3 3 2 2 2 1 1 2 3 3 3 3 4 3 3 3 3 3 3 3 3 3 6 7 7 7 4 3 2 2 5 6 6 7 6 4 3
4 4 5 5 5 4 4 3 3 2 1 1 0 1 2 2 2 2 2 2 3 3 3 3 2 2 1 1 1 2 3 5 4 3 2 2 4 5 5 4 4 4 4
4 4 4 4 4 3 3 3 3 2 1 0 1 1 2 2 3 2 1 2 2 3 3 2 2 2 3 3 4 3 3 3 3 2 2 2 2 3 3 3 4 4 4
4 4 4 4 3 3 3 3 3 2 1 1 1 1 1 2 2 3 2 2 3 5 5 5 4 3 4 3 4 4 3 3 2 2 3 3 3 3 4 4 4 4 4
Wind_Direction
154 154 156 149 142 138 136 137 137 135 136 136 145 144 138 133 128 132 126 132 140 151 156 149 154 156 155 162 162 159 163 173 164 155 156 181 197 191 193 185 171 180 180
157 156 157 155 149 145 144 141 143 149 151 137 137 152 151 149 126 121 133 148 147 163 159 162 169 158 153 160 162 168 170 179 177 175 157 176 175 258 205 179 179 184 180
162 160 161 161 157 153 154 156 154 152 154 154 156 144 140 144 130 145 142 151 158 155 140 156 161 162 168 170 177 186 178 189 200 201 193 190 182 182 216 218 190 174 180
162 163 166 167 163 157 157 148 149 154 159 172 167 168 166 160 156 148 143 159 168 163 157 166 159 159 156 172 190 185 195 193 209 210 214 218 175 172 171 202 189 181 187
164 164 167 167 167 162 158 154 152 157 163 177 174 179 176 162 156 140 152 170 168 169 167 168 164 169 166 174 190 170 203 208 228 226 208 215 211 199 170 186 192 195 198
159 160 161 162 168 165 161 158 155 160 169 178 181 192 188 173 153 161 168 181 170 174 177 173 177 179 171 183 189 196 204 218 247 256 245 225 215 206 182 188 196 195 198
158 159 159 163 169 166 161 156 158 166 173 179 186 187 188 183 180 188 193 187 178 174 181 176 177 179 177 185 181 194 215 216 234 245 258 264 261 246 185 176 196 204 203
160 162 162 166 171 171 165 158 158 166 173 178 182 182 180 188 199 200 212 188 178 166 170 171 174 178 181 186 183 198 208 210 228 242 248 268 274 284 194 196 181 203 232
162 163 162 167 171 173 171 165 160 165 172 178 177 181 189 196 199 182 201 200 163 166 163 169 168 173 175 179 183 209 221 209 214 239 240 254 242 262 254 217 194 193 223
160 160 162 163 168 172 170 165 164 167 173 179 186 187 186 189 177 184 205 170 136 117 141 151 160 173 179 184 193 210 221 218 222 218 223 254 247 219 236 241 242 225 209
147 153 156 157 163 168 167 171 165 166 174 182 190 186 178 181 178 190 195 162 156 154 161 149 160 187 185 188 202 218 213 209 231 236 203 226 249 269 274 250 237 229 209
137 141 148 154 161 167 169 174 170 174 178 179 184 180 171 174 180 184 186 174 169 173 167 158 177 198 190 206 216 227 205 207 215 232 217 232 230 236 290 290 276 247 220
119 121 125 129 149 162 170 170 172 174 174 175 179 175 169 168 173 175 171 168 168 176 168 165 176 191 178 172 192 215 216 242 229 227 225 232 229 255 275 283 295 283 270
120 118 112 117 134 149 158 159 168 170 171 173 176 172 174 172 169 165 157 160 170 181 185 179 179 183 178 182 183 184 208 230 253 233 232 236 220 227 258 261 266 282 292
127 119 112 115 152 159 160 158 165 164 170 172 176 174 169 158 157 159 156 162 187 201 180 173 179 184 188 201 178 190 198 202 231 247 221 244 78 81 53 310 359 320 293
136 131 128 130 148 162 163 158 157 160 163 172 170 158 159 157 156 159 158 164 179 186 172 180 186 201 208 112 94 108 214 203 223 244 231 193 152 117 99 80 73 41 260
123 111 113 118 129 157 153 153 156 152 160 165 157 153 158 157 158 170 164 171 180 177 178 190 183 180 155 121 119 153 227 220 215 225 238 248 166 129 123 144 186 248 244
100 104 108 114 115 112 128 148 147 145 152 154 153 153 158 161 160 163 172 177 177 179 183 197 187 185 197 167 155 215 227 233 237 233 228 219 151 174 163 209 223 245 248
97 91 94 85 83 111 119 138 142 146 157 162 161 164 168 163 157 164 179 180 178 186 195 197 187 188 183 183 187 220 235 224 242 239 222 192 186 188 185 204 230 253 268
90 90 99 96 78 76 99 135 146 149 164 168 163 163 163 163 164 172 179 180 186 198 196 197 196 194 190 191 196 215 245 247 242 227 212 199 200 195 188 213 225 245 263
73 77 91 93 77 63 86 112 140 155 157 149 150 166 165 170 166 171 180 185 195 203 202 205 200 196 203 183 193 204 237 248 252 246 225 213 200 202 209 223 234 240 254
77 79 80 77 71 66 76 81 88 102 114 137 159 172 173 183 177 175 185 192 197 206 209 209 211 207 202 190 202 213 233 268 264 257 262 218 203 207 219 226 234 242 256
77 78 80 74 66 57 61 71 63 76 93 109 146 174 182 175 169 182 192 195 200 218 224 227 229 219 208 198 202 215 232 248 263 277 285 263 227 217 223 229 230 227 239
72 72 77 77 68 57 47 48 41 65 108 134 172 212 190 175 168 185 192 200 217 219 225 232 238 242 224 199 201 223 236 241 251 273 277 242 221 227 235 228 229 232 239
76 77 76 77 76 64 47 39 32 30 52 145 208 215 203 188 174 183 199 202 208 211 216 233 246 252 253 239 222 221 232 245 246 244 233 225 217 230 233 229 224 230 235
89 84 82 76 68 66 52 36 22 14 40 1 273 255 225 198 189 184 198 214 210 202 209 219 227 229 226 224 224 237 248 249 222 206 236 240 238 237 239 239 238 232 232